Starlink 32245

operational
NORAD ID: 62133 Int'l Des: 2024-222 Owner: SPXS Country: US Constellation: starlink
LEOCIRCULAR

关于 Starlink 32245

正在加载描述...

实时位置

正在加载3D地球...

即将过境

高度历史

Altitude vs Time

uPlot chart will show altitude changes over time

两行轨道根数

1 62133U 24222V 25307.79040944 .00023440 00000-0 85901-3 0 9990
2 62133 42.9958 127.2488 0001901 267.5163 92.5471 15.27564043 53651
Epoch: Nov 3, 2025 • Age: 9 hours

当前状态

高度 494.8 km
速度 7.62 km/s
星下点 -42.42°S, 56.12°W
发射日期 Nov 27, 2024
运行时间 0.9 years
类型 internet

技术详情

分类 Payload
质量 730.00 kg
干质量 700.00 kg
总质量 730.00 kg
长度 0.30 m
直径 4.10 m
跨度 29.00 m
形状 Box + pan
制造商 SPXS
平台类型 Starlink V2M
阶段状态 In Orbit
所有者/国家 SPXS/US

大型星座

Loading constellations...